Location: Foulognes
(49.1413°N, 0.8183°W)
Time: 10:25:43
(UTC+00:00)

STARLINK-76 - Pass Details

Date: 21 October 2019
Orbit: 549 x 551 km, 53.0° (Epoch: 21 November)

Event Time Altitude Azimuth Distance (km) Brightness Sun altitude
Rises 18:07:56 0° 275° (W) 2,717 9.2 -11.4°
Reaches altitude 10° 18:10:14 10° 281° (WNW) 1,824 7.7 -11.8°
Maximum altitude 18:14:16 48° 357° (N) 721 4.2 -12.4°
Enters shadow 18:17:02 19° 66° (ENE) 1,364 5.1 -12.9°
